When you browse on this site, cookies collect data to enhance your experience and personalize the content and advertising you see.
Visit our Privacy Policy to learn more. By continuing to use the site, you agree to this use of cookies and data.
  • In Lithuania
  • List of Countries
  • For 7 days
  • Water Temperature
  • Satellite Maps
  • Weather Map
  • Weather Widgets
  • user-avatar
    Login

    Hourly Weather Przyborow

    Today, 16 January, Wednesday

    Time Temperature Precipitation Wind Pressure Humidity
    00:00 +1°C° 0.2 mm 9 mps 739 mmHg 89%
    01:00 +1°C° 0.2 mm 9 mps 739 mmHg 89%
    02:00 +1°C° 0.1 mm 8 mps 740 mmHg 90%
    03:00 +2°C° 0.1 mm 7 mps 740 mmHg 90%
    04:00 +2°C° 0.1 mm 6 mps 741 mmHg 90%
    05:00 +1°C° 0.2 mm 5 mps 741 mmHg 92%
    06:00 +1°C° 0.2 mm 4 mps 741 mmHg 94%
    07:00 +2°C° 0.2 mm 3 mps 742 mmHg 96%
    08:00 +1°C° 0.3 mm 4 mps 742 mmHg 95%
    09:00 +1°C° 0.3 mm 4 mps 742 mmHg 95%
    10:00 +2°C° 0.3 mm 5 mps 743 mmHg 95%
    11:00 +2°C° 0.1 mm 5 mps 743 mmHg 93%
    12:00 +2°C° 0.1 mm 6 mps 743 mmHg 91%
    13:00 +3°C° 0.1 mm 6 mps 743 mmHg 89%
    14:00 +2°C° 0 mm 6 mps 743 mmHg 89%
    15:00 +2°C° 0 mm 6 mps 743 mmHg 89%
    16:00 +2°C° 0 mm 5 mps 743 mmHg 89%
    17:00 +2°C° 0 mm 5 mps 743 mmHg 90%
    18:00 +2°C° 0 mm 5 mps 743 mmHg 90%
    19:00 +2°C° 0 mm 5 mps 742 mmHg 90%
    20:00 +2°C° 0 mm 5 mps 742 mmHg 89%
    21:00 +2°C° 0 mm 6 mps 742 mmHg 88%
    22:00 +2°C° 0 mm 6 mps 742 mmHg 87%
    23:00 +2°C° 0 mm 6 mps 741 mmHg 86%

    Tomorrow, 17 January, Thursday

    Time Temperature Precipitation Wind Pressure Humidity
    00:00 +1°C° 0 mm 6 mps 740 mmHg 85%
    01:00 +1°C° 0 mm 6 mps 740 mmHg 85%
    02:00 +1°C° 0 mm 6 mps 739 mmHg 82%
    03:00 -1°C° 0 mm 6 mps 739 mmHg 79%
    04:00 -1°C° 0 mm 7 mps 738 mmHg 76%
    05:00 0°C° 0 mm 7 mps 738 mmHg 74%
    06:00 0°C° 0 mm 7 mps 738 mmHg 71%
    07:00 0°C° 0 mm 8 mps 738 mmHg 69%
    08:00 0°C° 0 mm 8 mps 738 mmHg 71%
    09:00 +1°C° 0 mm 8 mps 738 mmHg 74%
    10:00 +1°C° 0 mm 9 mps 739 mmHg 76%
    11:00 +1°C° 0 mm 8 mps 739 mmHg 75%
    12:00 +2°C° 0 mm 8 mps 738 mmHg 73%
    13:00 +4°C° 0 mm 8 mps 738 mmHg 72%
    14:00 +3°C° 0 mm 7 mps 738 mmHg 73%
    15:00 +3°C° 0 mm 7 mps 738 mmHg 73%
    16:00 +3°C° 0 mm 6 mps 738 mmHg 73%
    17:00 +3°C° 0 mm 7 mps 738 mmHg 74%
    18:00 +2°C° 0 mm 8 mps 737 mmHg 74%
    19:00 +1°C° 0 mm 9 mps 737 mmHg 74%
    20:00 +1°C° 0.5 mm 8 mps 738 mmHg 72%
    21:00 0°C° 0.5 mm 7 mps 738 mmHg 69%
    22:00 -1°C° 0.5 mm 6 mps 739 mmHg 67%
    23:00 -1°C° 0 mm 7 mps 740 mmHg 66%

    Day after tomorrow, 18 January, Friday

    Time Temperature Precipitation Wind Pressure Humidity
    00:00 -1°C° 0 mm 7 mps 740 mmHg 66%
    01:00 -2°C° 0 mm 8 mps 741 mmHg 66%
    02:00 -2°C° 0 mm 8 mps 741 mmHg 68%
    03:00 -4°C° 0 mm 8 mps 742 mmHg 70%
    04:00 -4°C° 0 mm 8 mps 742 mmHg 73%
    05:00 -4°C° 0 mm 8 mps 743 mmHg 73%
    06:00 -4°C° 0 mm 8 mps 744 mmHg 72%
    07:00 -4°C° 0 mm 8 mps 745 mmHg 72%
    08:00 -4°C° 0.1 mm 8 mps 746 mmHg 71%
    09:00 -4°C° 0.1 mm 8 mps 747 mmHg 69%
    10:00 -4°C° 0.1 mm 8 mps 748 mmHg 68%
    11:00 -3°C° 0.1 mm 7 mps 749 mmHg 65%
    12:00 -3°C° 0.1 mm 7 mps 749 mmHg 62%
    13:00 -2°C° 0.1 mm 7 mps 750 mmHg 59%
    14:00 -3°C° 0 mm 6 mps 750 mmHg 63%
    15:00 -2°C° 0 mm 5 mps 751 mmHg 66%
    16:00 -3°C° 0 mm 4 mps 751 mmHg 69%
    17:00 -3°C° 0 mm 4 mps 751 mmHg 70%
    18:00 -3°C° 0 mm 4 mps 752 mmHg 71%
    19:00 -3°C° 0 mm 4 mps 752 mmHg 72%
    20:00 -4°C° 0 mm 4 mps 752 mmHg 71%
    21:00 -4°C° 0 mm 4 mps 752 mmHg 70%
    22:00 -4°C° 0 mm 4 mps 753 mmHg 69%
    23:00 -3°C° 0 mm 4 mps 753 mmHg 71%

    19 January, Saturday

    Time Temperature Precipitation Wind Pressure Humidity
    00:00 -3°C° 0 mm 4 mps 753 mmHg 72%
    01:00 -3°C° 0 mm 4 mps 753 mmHg 74%
    02:00 -3°C° 0 mm 4 mps 752 mmHg 76%
    03:00 -3°C° 0 mm 4 mps 752 mmHg 78%
    04:00 -3°C° 0 mm 4 mps 752 mmHg 79%
    05:00 -3°C° 0 mm 4 mps 752 mmHg 80%
    06:00 -3°C° 0 mm 4 mps 752 mmHg 81%
    07:00 -2°C° 0 mm 3 mps 752 mmHg 83%
    08:00 -2°C° 0 mm 3 mps 752 mmHg 81%
    09:00 -2°C° 0 mm 3 mps 753 mmHg 79%
    10:00 -1°C° 0 mm 3 mps 753 mmHg 77%
    11:00 -1°C° 0 mm 3 mps 753 mmHg 75%
    12:00 0°C° 0 mm 3 mps 752 mmHg 72%
    13:00 0°C° 0 mm 3 mps 752 mmHg 70%
    14:00 +1°C° 0 mm 2 mps 752 mmHg 73%
    15:00 -1°C° 0 mm 2 mps 752 mmHg 76%
    16:00 +1°C° 0 mm 1 mps 752 mmHg 79%
    17:00 0°C° 0 mm 1 mps 752 mmHg 80%
    18:00 0°C° 0 mm 1 mps 752 mmHg 81%
    19:00 0°C° 0 mm 1 mps 752 mmHg 81%
    20:00 0°C° 0 mm 1 mps 752 mmHg 81%
    21:00 0°C° 0 mm 1 mps 752 mmHg 80%
    22:00 0°C° 0 mm 1 mps 752 mmHg 80%
    23:00 0°C° 0 mm 1 mps 752 mmHg 80%

    20 January, Sunday

    Time Temperature Precipitation Wind Pressure Humidity
    00:00 0°C° 0 mm 1 mps 752 mmHg 80%
    01:00 -1°C° 0 mm 1 mps 752 mmHg 80%
    02:00 -1°C° 0 mm 1 mps 752 mmHg 82%
    03:00 -3°C° 0 mm 2 mps 752 mmHg 84%
    04:00 -3°C° 0 mm 2 mps 752 mmHg 86%
    05:00 -3°C° 0 mm 2 mps 753 mmHg 87%
    06:00 -3°C° 0 mm 2 mps 753 mmHg 89%
    07:00 -3°C° 0 mm 2 mps 753 mmHg 91%
    08:00 -3°C° 0 mm 2 mps 754 mmHg 89%
    09:00 -4°C° 0 mm 3 mps 754 mmHg 86%
    10:00 -2°C° 0 mm 3 mps 754 mmHg 84%
    11:00 -2°C° 0 mm 3 mps 754 mmHg 74%
    12:00 -1°C° 0 mm 3 mps 755 mmHg 63%
    13:00 -1°C° 0 mm 4 mps 755 mmHg 53%
    14:00 -1°C° 0 mm 3 mps 755 mmHg 55%
    15:00 -1°C° 0 mm 3 mps 755 mmHg 57%
    16:00 -2°C° 0 mm 3 mps 755 mmHg 58%
    17:00 -2°C° 0 mm 3 mps 756 mmHg 59%
    18:00 -3°C° 0 mm 4 mps 756 mmHg 60%
    19:00 -3°C° 0 mm 4 mps 757 mmHg 61%
    20:00 -4°C° 0 mm 4 mps 757 mmHg 64%
    21:00 -4°C° 0 mm 4 mps 758 mmHg 66%
    22:00 -4°C° 0 mm 3 mps 758 mmHg 69%
    23:00 -4°C° 0 mm 3 mps 758 mmHg 69%

    21 January, Monday

    Time Temperature Precipitation Wind Pressure Humidity
    00:00 -5°C° 0 mm 3 mps 759 mmHg 70%
    01:00 -5°C° 0 mm 3 mps 759 mmHg 70%
    02:00 -4°C° 0 mm 2 mps 759 mmHg 71%
    03:00 -4°C° 0 mm 2 mps 759 mmHg 71%
    04:00 -4°C° 0 mm 2 mps 760 mmHg 72%
    05:00 -5°C° 0 mm 2 mps 760 mmHg 72%
    06:00 -5°C° 0 mm 2 mps 760 mmHg 72%
    07:00 -5°C° 0 mm 2 mps 760 mmHg 72%
    08:00 -2°C° 0 mm 1 mps 761 mmHg 70%
    09:00 -2°C° 0 mm 1 mps 761 mmHg 68%
    10:00 -2°C° 0 mm 1 mps 761 mmHg 65%
    11:00 -1°C° 0 mm 1 mps 761 mmHg 62%
    12:00 0°C° 0 mm 1 mps 761 mmHg 59%
    13:00 -2°C° 0 mm 2 mps 761 mmHg 55%
    14:00 0°C° 0 mm 1 mps 761 mmHg 57%
    15:00 -1°C° 0 mm 1 mps 760 mmHg 58%
    16:00 -1°C° 0 mm 1 mps 760 mmHg 60%
    17:00 -1°C° 0 mm 1 mps 760 mmHg 60%
    18:00 -1°C° 0 mm 1 mps 760 mmHg 61%
    19:00 -2°C° 0 mm 1 mps 760 mmHg 61%
    20:00 -4°C° 0 mm 2 mps 760 mmHg 62%
    21:00 -4°C° 0 mm 2 mps 759 mmHg 63%
    22:00 -4°C° 0 mm 2 mps 759 mmHg 63%
    23:00 -4°C° 0 mm 2 mps 759 mmHg 64%
    Show more